Regional Weather Roundup
Issued by NWS

Home | Current Version | Previous Version | Graphics & Text | Print | Product List | Glossary On
Versions: 1 2 3 4 5 6 7 8 9 10 11 12 13 14 15 16 17 18 19 20 21 22 23 24 25 26 27 28 29 30 31 32 33 34 35 36 37 38 39 40 41 42 43 44 45 46 47 48 49 50
000
ASUS45 KTFX 101410
RWRMT
MONTANA REGIONAL WEATHER ROUNDUP
NATIONAL WEATHER SERVICE GREAT FALLS MT
700 AM MST WED FEB 10 2016

NOTE: "FAIR" INDICATES FEW OR NO CLOUDS BELOW 12000 FEET WITH NO
SIGNIFICANT WEATHER AND/OR OBSTRUCTIONS TO VISIBILITY.

MTZ001>007-043-101500-
WEST OF THE DIVIDE

CITY           SKY/WX    TMP DP  RH WIND       PRES   REMARKS
KALISPELL      FOG       21  18  88 CALM      30.25S VSB 1/4
MISSOULA       FOG       20  18  92 W3        30.31R VSB 1/4
BUTTE          CLOUDY     9   5  84 SE5       30.27R
MULLAN PASS    CLEAR     36  26  67 SW7       30.22F WCI  30
ANACONDA         N/A     25  18  74 NW3       30.23F
DEER LODGE       N/A     19  19 100 CALM      30.26S
HAMILTON         N/A     27  23  86 CALM      30.26S
LIBBY            N/A     23  21  93 CALM      30.28S VSB 1/4
PLAINS           N/A     28  24  85 CALM      30.26  VSB 0
$$

MTZ008-052>055-101500-
SOUTHWEST MONTANA

CITY           SKY/WX    TMP DP  RH WIND       PRES   REMARKS
BOZEMAN        CLOUDY    19  14  81 N3        30.22S
DILLON         CLOUDY    31  22  69 SW21      30.25R WCI  18
ENNIS          CLEAR     32  23  69 S17G25    30.28S WCI  21
THREE FORKS      N/A     21   9  60 CALM      30.18S
TWIN BRIDGES     N/A     22  13  68 E6        30.22  WCI  15
$$

MTZ009-010-012-014-046-048-049-054-101500-
EAST SLOPES AND CENTRAL MONTANA

CITY           SKY/WX    TMP DP  RH WIND       PRES   REMARKS
CUT BANK       MOCLDY    42  27  55 W10       30.03S
GREAT FALLS    CLOUDY    40  23  50 SW7       30.05R
MALMSTROM AFB  CLOUDY    44  25  46 NW6       30.06R
HELENA         CLOUDY    27  25  92 S5        30.19R
CHOTEAU          N/A     52  23  32 NW7G17    30.07R
CONRAD           N/A     50  28  42 W18       30.03S
$$

MTZ011-013-016-021-045-047-050-051-101500-
NORTH CENTRAL MONTANA

CITY           SKY/WX    TMP DP  RH WIND       PRES   REMARKS
HAVRE          CLOUDY    31  24  75 SW3       30.01R
LEWISTOWN      CLOUDY    39  23  52 SW14      30.04R WCI  31
N BAR RANCH      N/A     48  18  29 NW9G17    30.03R
CHINOOK          N/A     30  25  80 W5        30.02R
$$

MTZ017>020-022>027-061-062-101500-
NORTHEAST MONTANA

CITY           SKY/WX    TMP DP  RH WIND       PRES   REMARKS
GLASGOW        CLOUDY    32  26  78 NW12      29.96R WCI  23
JORDAN           N/A     34  27  75 W7        29.96R WCI  28
SIDNEY         CLEAR     36  27  69 NW17      29.89R WCI  25
WOLF POINT     CLEAR     30  26  85 W8        29.95R WCI  22
PLENTYWOOD       N/A     30  28  93 NW9G17    29.88R WCI  22
POPLAR           N/A     28  27  93 W9        29.94R WCI  20
SCOBEY           N/A     34  24  67 NW15      29.88R WCI  24
$$

MTZ028>42-056>058-101500-
SOUTHCENTRAL AND SOUTHEAST MONTANA

CITY           SKY/WX    TMP DP  RH WIND       PRES   REMARKS
BAKER          CLEAR     33  23  66 W14       29.89R WCI  23
BILLINGS       CLOUDY    45  20  36 SW21      30.03R
LIVINGSTON     CLOUDY    45  21  38 W18G28    30.16F
MILES CITY     CLOUDY    31  23  72 W9        29.95R WCI  23
EKALAKA          N/A     41  19  41 W12       29.90
FORSYTH          N/A     39  21  48 W5        29.98R
LAUREL           N/A     39  19  45 SW9       30.03R
ROUNDUP          N/A     44  16  32 S3        29.93S
$$

REGIONAL REPORTS...DAKOTAS

CITY           SKY/WX    TMP DP  RH WIND       PRES   REMARKS
WILLISTON      CLEAR     33  28  81 N7        29.87R WCI  27
MINOT          CLOUDY    17   9  70 E12       29.90R WCI   4
DICKINSON      CLEAR     31  25  78 W14       29.80R WCI  21
BEACH            N/A     36  27  69 W16G23    29.90R WCI  26
CROSBY         CLOUDY    19  19 100 NE7       29.93R WCI  10
TIOGA            N/A     18  18 100 CALM      29.91R
WATFORD CITY     N/A     30  28  93 W6        29.86R WCI  24
BISMARCK       CLOUDY    22  17  81 SE9       29.87R WCI  12
GRAND FORKS    LGT SNOW   5  -1  76 E8        30.11F WCI  -8
FARGO          LGT SNOW   8   3  80 E6        30.09F WCI  -2
BUFFALO SD       N/A     36  23  59 W12       29.80R WCI  28
RAPID CITY     CLEAR     40  24  53 NW12      29.89R
$$

REGIONAL REPORTS...WYOMING/IDAHO/WASHINGTON

CITY           SKY/WX    TMP DP  RH WIND       PRES   REMARKS
GILLETTE       CLOUDY    40  19  43 W12       30.01S
SHERIDAN       CLEAR     43  14  31 CALM      29.98F
BUFFALO WY     CLOUDY    47  13  25 W9        30.03S
CODY           CLOUDY    50  16  25 NW15G21   30.12S
YELLOWSTONE LA   N/A      2  -2  83 CALM      30.38F
IDAHO FALLS    CLOUDY     5   0  79 N5        30.42S FOG
SALMON         CLOUDY     7   3  85 CALM      30.45R
BOISE          PTCLDY    27  25  92 SE3       30.41S
SPOKANE        PTCLDY    30  29  96 NE5       30.25R FOG
$$

REGIONAL REPORTS...ALBERTA

CITY           SKY/WX    TMP DP  RH WIND       PRES   REMARKS
EDMONTON       PTCLDY    28  25  86 N5        30.10R
CALGARY        MOCLDY    30  21  69 SE3       30.07R
LETHBRIDGE     MOCLDY    36  23  60 NW5       30.06R
MEDICINE HAT   MOCLDY    25  23  93 N3        30.05R
WATERTON GATE    N/A     46  25  42 SW22G30     N/A
MILK RIVER       N/A     34  25  69 W6          N/A  WCI  29
$$

REGIONAL REPORTS...SASKATCHEWAN

CITY           SKY/WX    TMP DP  RH WIND       PRES   REMARKS
SWIFT CURRENT  CLOUDY    28  28 100 W10       29.99R WCI  19
REGINA         CLOUDY    23  21  93 W6        29.94R WCI  16
SASKATOON      CLOUDY    25  21  86 N18       30.04R WCI  11
CYPRESS HILLS    N/A     32  25  74 N7          N/A  WCI  26
VAL MARIE        N/A     34  28  80 N13         N/A  WCI  25
ROCKGLEN         N/A     32  28  86 N24G30      N/A  WCI  19
ASSINIBOIA       N/A     32  30  93 N7          N/A  WCI  26
$$



USA.gov is the U.S. government's official web portal to all federal, state and local government web resources and services.